www.pogodaiklimat.ru

Погода и климат >> Архив погоды >> Индонезия >> Аэропорт Дабо


ПОГОДА в Аэропорту Дабо

  • Прогноз погоды в Аэропорту Дабо
  • Монитор погоды в Аэропорту Дабо

АРХИВ ПОГОДЫ в Аэропорту Дабо

Время (UTC), дата Ветер
(напр.,м/с)
 
Видим.   Явления Облачность Т
(С)
Тd
(С)
f
(%)
Тe
(С)
Тes
(С)
Комфортность P
(гПа)
Po
(гПа)
Тmin
(С)
Tmax
(С)
R
(мм)
R24
(мм)
S
(см)
09 9.07 В 3 9000 м 9/3 500 м
[Cu med, cong As op Cs]
+30.6 +25.0 72 +44 +45 опасность
перегрева
1009.3 1005.8
12 9.07 В 3 9000 м 9/3 500 м
[Cu med, cong As op Cs]
+28.0 +25.9 88 +42 +42 опасность
перегрева
1010.6 1007.1 +31.8
15 9.07 В 4 9000 м 9/4 500 м
[Cu med, cong Ac trans Cs]
+27.9 +23.7 78 +38 +38 очень
душно
1011.5 1008.0
18 9.07 В 3 9000 м 9/4 500 м
[Cu med, cong Ac trans Cs]
+27.8 +23.6 78 +38 +38 очень
душно
1011.2 1007.7
21 9.07 В 3 9000 м 9/4 500 м
[Cu med, cong Ac trans Cs]
+27.2 +23.3 79 +37 +37 очень
душно
1009.7 1006.2
00 10.07 ЮВ 3 9000 м 9/4 500 м
[Cu med, cong Ac trans Cs]
+27.9 +24.3 81 +39 +40 очень
душно
1011.0 1007.5 +23.5 0.0
03 10.07 ЮВ 5 9000 м 9/4 500 м
[Cu med, cong As op Cs]
+31.2 +24.1 66 +43 +46 опасность
перегрева
1011.8 1008.3
06 10.07 В 5 9000 м 6/4 500 м
[Cu med, cong As op Ci fib]
+31.6 +25.8 71 +47 +52 опасность
перегрева
1010.2 1006.7
09 10.07 ЮВ 2 9000 м 6/4 500 м
[Cu med, cong As op Ci fib]
+30.7 +25.2 73 +45 +47 опасность
перегрева
1008.7 1005.2
12 10.07 В 5 9000 м 6/4 500 м
[Cu med, cong As op Ci fib]
+28.9 +25.1 80 +42 +42 опасность
перегрева
1009.9 1006.4 +32.1
15 10.07 В 3 9000 м 6/4 500 м
[Cu med, cong As op Ci fib]
+27.0 +24.7 87 +38 +38 очень
душно
1011.8 1008.1
18 10.07 В 3 9000 м 6/4 500 м
[Cu med, cong As op Ci fib]
+27.2 +24.8 87 +39 +39 очень
душно
1011.2 1007.8
21 10.07 ЮВ 3 9000 м 6/4 500 м
[Cu med, cong As op Ci fib]
+27.1 +24.8 87 +39 +39 очень
душно
1010.2 1006.7
00 11.07 В 3 9000 м 6/4 500 м
[Cu med, cong As op Ci fib]
+27.8 +25.0 85 +40 +41 очень
душно
1011.6 1008.2 +22.2
03 11.07 В 5 9000 м 5/3 500 м
[Cu med, cong As trans Ci fib]
+32.0 +24.8 66 +45 +50 опасность
перегрева
1013.4 1009.9
06 11.07 В 4 9000 м 5/3 500 м
[Cu med, cong As trans Ci fib]
+32.6 +25.3 66 +47 +54 опасность
перегрева
1012.0 1008.5
09 11.07 ЮВ 1 9000 м 6/3 500 м
[Cu med, cong As trans Cs]
+31.0 +24.8 70 +44 +47 опасность
перегрева
1010.7 1007.2
12 11.07 В 1 9000 м 5/3 500 м
[Cu med, cong As trans Cs]
+26.8 +24.1 85 +37 +37 очень
душно
1011.5 1008.0 +32.6
15 11.07 З 2 9000 м 5/3 500 м
[Cu med, cong As trans Cs]
+26.0 +23.7 87 +35 +35 очень
душно
1012.7 1009.2
18 11.07 В 2 9000 м 5/3 500 м
[Cu med, cong As trans Cs]
+25.2 +23.3 89 +34 +34 очень
душно
1011.6 1008.1
21 11.07 ЮВ 3 9000 м 5/3 500 м
[Cu med, cong As trans Cs]
+24.8 +23.6 93 +34 +34 очень
душно
1010.9 1007.4
00 12.07 Ю 3 9000 м 5/3 500 м
[Cu med, cong As trans Cs]
+25.9 +23.3 86 +35 +36 очень
душно
1012.6 1009.1 +22.2
03 12.07 Ю 5 9000 м 5/4 500 м
[Cu med, cong As trans Cs]
+30.6 +25.6 75 +45 +50 опасность
перегрева
1013.7 1010.2
06 12.07 Ю 4 9000 м 5/4 500 м
[Cu med, cong As trans Cs]
+31.6 +25.5 70 +46 +52 опасность
перегрева
1011.9 1008.4
09 12.07 ЮВ 4 9000 м 5/4 500 м
[Cu med, cong As trans Cs]
+30.5 +24.6 71 +43 +45 опасность
перегрева
1010.4 1006.9
12 12.07 штиль 0 9000 м 5/4 500 м
[Cu med, cong As trans Cs]
+27.5 +25.1 87 +40 +40 очень
душно
1011.1 1007.6 +32.2
15 12.07 штиль 0 9000 м 5/4 500 м
[Cu med, cong As trans Cs]
+25.1 +24.4 96 +35 +35 очень
душно
1012.3 1008.8
18 12.07 Ю 2 9000 м 8/4 500 м
[Cu med, cong As trans Cs]
+25.2 +24.8 98 +36 +36 очень
душно
1012.0 1008.4
21 12.07 ЮВ 3 9000 м 9/4 500 м
[Cu med, cong As trans Cs]
+27.5 +25.4 88 +40 +40 очень
душно
1011.4 1007.8
00 13.07 ЮВ 4 9000 м 9/4 500 м
[Cu med, cong As trans Cs]
+28.0 +24.6 82 +40 +40 очень
душно
1012.1 1008.5 +24.0
03 13.07 ЮВ 3 9000 м 9/4 500 м
[Cu med, cong As trans Cs]
+31.0 +24.8 70 +44 +48 опасность
перегрева
1012.4 1008.9
06 13.07 Ю 5 9000 м 9/4 500 м
[Cu med, cong As trans Cs]
+32.0 +25.0 67 +46 +49 опасность
перегрева
1010.6 1007.2
09 13.07 ЮВ 3 9000 м 9/4 500 м
[Cu med, cong As trans Cs]
+31.2 +24.7 68 +44 +45 опасность
перегрева
1009.1 1005.6
12 13.07 ЮВ 3 9000 м 9/4 500 м
[Cu med, cong As trans Cs]
+28.4 +25.3 83 +41 +41 опасность
перегрева
1009.5 1006.0 +32.3
15 13.07 В 3 9000 м 9/4 500 м
[Cu med, cong As trans Cs]
+28.3 +25.1 83 +41 +41 опасность
перегрева
1011.6 1008.0
18 13.07 В 4 9000 м 9/4 500 м
[Cu med, cong As trans Cs]
+27.5 +24.7 85 +39 +39 очень
душно
1010.6 1007.2
21 13.07 ЮВ 2 9000 м 9/4 500 м
[Cu med, cong As trans Cs]
+27.2 +24.3 84 +38 +38 очень
душно
1010.0 1006.5
00 14.07 ЮВ 2 9000 м 9/4 500 м
[Cu med, cong As trans Cs]
+27.1 +24.1 84 +38 +38 очень
душно
1010.7 1007.2 +23.6
03 14.07 ЮВ 3 9000 м 9/4 500 м
[Cu med, cong As trans Cs]
+31.8 +24.3 65 +44 +48 опасность
перегрева
1011.9 1008.4
06 14.07 ЮВ 5 9000 м 9/4 500 м
[Cu med, cong As trans Cs]
+31.6 +24.9 68 +45 +49 опасность
перегрева
1009.5 1006.2
09 14.07 ЮВ 4 9000 м 9/4 500 м
[Cu med, cong As trans Cs]
+30.0 +24.9 74 +43 +44 опасность
перегрева
1007.4 1004.0
12 14.07 ЮВ 2 9000 м 9/4 500 м
[Cu med, cong As trans Cs]
+28.4 +24.3 78 +40 +40 очень
душно
1008.3 1004.8 +31.9
15 14.07 В 2 9000 м 9/4 500 м
[Cu med, cong As trans Cs]
+27.7 +24.7 84 +39 +39 очень
душно
1010.1 1006.7
18 14.07 В 3 9000 м 9/4 500 м
[Cu med, cong As trans Cs]
+27.7 +24.7 84 +39 +39 очень
душно
1009.3 1005.5
21 14.07 ЮВ 4 9000 м 9/4 500 м
[Cu med, cong As trans Cs]
+27.4 +24.6 85 +39 +39 очень
душно
1008.7 1005.3
00 15.07 ЮВ 3 9000 м 9/3 500 м
[Cu med, cong As trans Cs]
+27.8 +23.8 79 +38 +39 очень
душно
1010.0 1006.5 +26.0
03 15.07 Ю 6 9000 м 9/4 500 м
[Cu med, cong As trans Cs]
+30.4 +23.8 68 +42 +44 опасность
перегрева
1011.5 1008.0
06 15.07 Ю 5 9000 м 9/4 500 м
[Cu med, cong As trans Cs]
+31.5 +24.0 65 +43 +47 опасность
перегрева
1010.2 1006.7
09 15.07 ЮВ 3 9000 м 9/4 500 м
[Cu med, cong As trans Cs]
+30.9 +24.2 68 +43 +45 опасность
перегрева
1008.5 1005.0
12 15.07 В 2 9000 м 9/3 500 м
[Cu med, cong As trans Cs]
+27.8 +24.2 81 +39 +39 очень
душно
1008.8 1005.3 +31.8
15 15.07 В 3 9000 м 9/4 500 м
[Cu med, cong As trans Cs]
+27.9 +24.0 79 +39 +39 очень
душно
1010.7 1007.1
18 15.07 В 5 9000 м слаб. дождь 9/4 500 м
[Cu med, cong As trans Cs]
+27.0 +24.4 86 +38 +38 очень
душно
1010.0 1006.4 2
21 15.07 ЮВ 3 9000 м 9/4 500 м
[Cu med, cong As trans Cs]
+27.5 +23.0 76 +37 +37 очень
душно
1009.4 1005.8
00 16.07 Ю 4 9000 м 9/4 500 м
[Cu med, cong As trans Cs]
+27.7 +23.7 79 +38 +38 очень
душно
1010.5 1006.9 +26.1 2
03 16.07 ЮВ 4 9000 м 9/4 500 м
[Cu med, cong As trans Cs]
+30.2 +23.1 66 +40 +44 очень
душно
1010.9 1007.4
06 16.07 Ю 5 9000 м 9/4 500 м
[Cu med, cong As trans Cs]
+31.0 +23.1 63 +41 +45 опасность
перегрева
1009.6 1006.1

 

Местоположение метеостанции Аэропорт Дабо (Индонезия): широта -0.48 долгота 104.58 высота над уровнем моря 31 м.

В архиве по умолчанию представлена погода в Аэропорту Дабо за последнюю неделю. Архивные данные за месяц целиком и за предыдущие месяцы, начиная с января 2011 года, Вы можете получить, выбрав интересующий диапазон дат из раскрывающегося списка и нажав кнопку "Ввод!".


*Определитесь, кто Вы:
робот инопланетянин человек

Внимание! Время в таблицах - всемирное. Для получения местного времени необходимо прибавить поправку, которая равна 7 ч.

Смотрите также архив погоды в соседних городах и на ближайших метеорологических станциях:

Погода в Танджунгпинанге (Индонезия) (156 км)
Погода в Джамби (Индонезия) (164 км)
Погода в Аэропорту Ханга Надима (Индонезия) (185 км)
Погода в Сингапуре (Сингапур) (216 км)
Погода в Аэропорту Япура (Индонезия) (253 км)
Погода в Панкалпинанге (Индонезия) (255 км)
Погода в Аэропорту Сеная (Малайзия) (256 км)
Погода в Палембанге (Индонезия) (269 км)
Погода в Пеканбару (Индонезия) (364 км)
Погода в Малакке (Малайзия) (401 км)

Пояснения к столбцам:

Ветер - указаны скорость ветра в м/с - средняя за 10 мин, порывы в срок и между сроками (в фигурных скобках) и направление, откуда дует ветер: С - северный, СВ - северо-восточный, В - восточный, ЮВ - юго-восточный, Ю - южный, ЮЗ - юго-западный, З - западный, СЗ - северо-западный.
Видимость - горизонтальная дальность видимости в метрах или километрах. При видимости от 1 до 10 км при отсутствии осадков обычно наблюдается дымка, при ухудшении видимости до 1 км и менее - туман. В сухую погоду видимость может ухудшаться дымом, пылью или мглою.
Явления - указаны атмосферные явления, наблюдавшиеся в срок или в последний час перед сроком; фигурными скобками обозначены явления, наблюдавшиеся между сроками (за 1-3 часа до срока); квадратными скобками обозначены град или гололедные отложения с указанием их диаметра в мм.
Облачность - указаны через наклонную черту общая и нижняя облачность в баллах и высота нижней границы облаков в метрах; квадратными скобками обозначены формы облаков: Ci - перистые, Cs - перисто-слоистые, Cc - перисто-кучевые, Ac - высококучевые, As - высокослоистые, Sc - слоисто-кучевые, Ns - слоисто-дождевые, Cu - кучевые, Cb - кучево-дождевые. Подробнее классификацию облаков см. в Атласе облаков (PDF).
T - Температура воздуха - температура, измеренная на высоте 2 м над землей.
Td - Температура точки росы - температура, при понижении до которой содержащийся в воздухе водяной пар достигнет насыщения.
f - Относительная влажность воздуха - влажноcть воздуха, измеренная на высоте 2 м над землей.
Te - Эффективная температура - температура, которую ощущает одетый по сезону человек в тени. Характеристика душности погоды. При расчете учитывается влияние влажности воздуха и скорости ветра на теплоощущения человека.
Tes - Эффективная температура на солнце - температура, которую ощущает человек, с поправкой на солнечный нагрев. Характеристика знойности погоды. Зависит от высоты солнца над горизонтом, облачности и скорости ветра. Ночью, в пасмурную погоду, а также при ветре 12 м/с и более поправка равна нулю.
P - Атмосферное давление - приведенное к уровню моря атмосферное давление.
Po - Атмосферное давление - измеренное на уровне метеостанции атмосферное давление.
Tmin - Минимальная температура - минимум температуры воздуха на высоте 2 м над землей.
Tmax - Максимальная температура - максимум температуры воздуха на высоте 2 м над землей.
R - Количество осадков - Количество выпавших осадков за период времени, мм. При наведении курсора мыши на число - период времени, за который выпало указанное количество осадков.
R24 - Количество осадков - Количество выпавших осадков за 24 часа, мм.
S - Снежный покров - Высота снежного покрова, см. При наведении курсора мыши на число - состояние снежного покрова и степень покрытия местности в баллах.